Theta_e
346 347 348 348 348 347 350 352 351 351 351 351 350 349 349 348 348 347 346 346 344 337 336 335 335 337 343 339 340 340 340 340 340 340 341 341 343 343 344 344 344 345 345 345 344 341 338 339 341 342 343 343 342 336 333 333 333 337 336 338 342 337
346 347 348 348 347 347 349 350 347 347 348 348 348 348 345 343 347 340 346 342 339 342 335 333 336 344 341 341 341 342 340 340 341 341 341 341 342 343 344 344 344 345 345 343 341 332 332 335 337 339 340 338 333 334 335 334 334 332 338 337 340 339
346 347 347 347 347 348 347 345 345 345 346 348 348 346 342 344 339 339 340 339 341 338 336 339 340 342 342 344 341 343 342 342 341 341 341 342 343 343 343 343 342 343 342 339 332 328 329 328 328 336 335 331 331 332 333 334 334 333 336 337 339 340
346 347 346 347 347 347 346 346 345 344 343 343 343 343 340 339 340 340 338 338 338 341 338 334 345 348 347 338 336 342 344 343 343 342 342 337 338 338 340 340 339 340 337 332 329 328 329 327 328 328 328 329 330 331 331 333 334 334 333 336 340 341
346 346 346 346 346 346 346 345 345 344 344 343 342 340 340 339 340 339 338 339 336 341 338 335 332 333 334 336 333 332 334 331 328 329 338 334 332 331 333 330 331 333 330 330 329 329 328 328 329 329 329 329 330 330 331 333 334 334 333 333 337 342
345 345 346 346 346 346 346 344 344 344 344 343 341 339 339 339 339 338 337 339 341 338 338 337 335 333 333 333 331 333 334 333 333 335 337 335 334 334 333 333 333 333 334 332 331 330 328 333 329 328 328 329 329 330 331 332 334 334 334 333 334 340
344 344 345 346 346 345 344 345 345 344 343 342 340 338 338 338 338 337 337 342 338 334 333 336 335 333 333 333 333 333 335 335 335 335 337 336 335 335 335 335 334 334 334 334 334 332 329 328 327 327 328 329 331 332 332 333 334 334 334 334 335 339
343 344 344 345 344 344 344 344 344 343 343 343 340 337 337 338 338 338 339 337 340 332 332 333 333 332 333 334 335 335 335 336 336 336 338 338 336 336 335 334 334 334 335 335 334 334 332 332 331 329 330 333 334 333 333 333 334 334 334 334 335 336
342 343 344 344 343 343 343 343 343 343 341 344 340 338 334 337 337 337 338 336 340 333 330 330 330 331 331 332 334 336 337 337 337 337 336 336 336 335 335 335 335 335 335 334 334 334 336 337 336 335 334 335 334 334 334 333 332 332 332 332 333 334
341 342 343 343 342 342 342 341 342 343 341 344 340 338 334 334 333 333 333 335 336 333 331 331 331 329 330 330 333 334 336 336 336 336 336 335 335 335 335 335 336 336 336 335 335 335 339 336 335 336 335 335 335 335 334 333 333 333 332 332 333 335
341 342 341 341 340 340 341 340 341 342 341 340 340 338 335 332 331 330 331 333 334 335 332 331 331 331 331 331 332 333 332 332 334 334 336 336 335 336 335 335 336 335 335 334 334 334 334 334 333 333 334 334 335 334 334 334 333 334 334 334 334 334
339 341 340 339 339 338 339 340 341 341 339 338 338 335 332 331 334 331 334 334 335 335 334 332 332 331 332 330 330 329 330 333 334 334 336 336 335 336 336 335 335 335 335 333 332 331 333 332 331 331 332 333 334 334 334 334 334 334 334 334 334 334
336 338 339 337 337 337 337 338 338 337 336 337 336 333 331 330 331 335 335 336 336 337 337 333 332 335 338 330 330 331 333 334 333 334 336 337 337 332 332 332 333 332 334 330 331 331 332 330 330 331 331 332 333 333 333 333 333 334 334 334 334 333
334 334 336 336 335 334 334 334 336 335 336 334 333 333 333 332 336 334 333 333 334 337 337 337 336 333 333 331 331 332 332 334 335 335 336 335 332 331 332 332 332 330 333 330 329 330 329 330 330 331 332 332 332 332 332 332 333 333 333 334 334 334
336 333 336 334 334 332 332 333 333 334 334 334 333 333 334 335 333 332 332 332 334 336 336 336 336 334 332 332 331 332 334 335 336 334 333 333 332 331 331 331 331 329 328 328 327 329 329 328 328 330 331 331 331 331 331 331 331 332 333 333 334 334
335 333 332 332 331 331 332 332 334 337 334 334 334 334 334 334 332 331 332 333 334 337 335 336 336 334 333 332 332 333 333 335 334 332 331 332 332 330 330 329 330 328 327 326 327 326 327 327 328 329 330 330 330 331 330 330 331 331 332 333 333 332
333 332 330 331 331 331 332 333 334 334 333 334 334 333 333 333 333 333 333 333 334 336 334 336 337 336 334 332 333 333 333 333 333 330 330 329 329 329 328 329 328 329 326 324 324 324 325 325 326 328 327 327 328 329 328 329 330 330 331 331 330 329
332 331 330 331 332 332 333 334 334 334 335 333 333 334 334 334 333 333 333 332 334 335 335 335 336 337 335 334 331 331 330 330 330 328 327 327 327 328 327 326 326 326 325 323 322 321 322 323 325 325 325 325 326 327 328 328 329 330 329 328 327 326
331 330 331 332 333 333 334 333 333 332 332 332 333 334 334 333 333 333 333 334 335 335 335 334 334 333 331 330 329 329 328 328 327 326 325 325 324 326 326 325 325 324 324 323 321 320 320 321 323 322 322 324 325 325 327 327 327 327 327 327 325 323
330 332 332 332 334 333 333 332 331 332 331 332 332 332 332 332 332 333 334 333 333 333 333 333 331 330 329 328 327 327 326 326 326 325 323 323 322 322 322 323 324 324 320 320 320 319 319 319 320 319 320 321 322 323 326 323 325 326 326 325 322 320
330 332 332 332 332 332 331 330 330 329 329 330 330 331 332 333 333 333 333 332 331 331 330 330 329 328 327 329 326 325 324 324 324 324 322 321 322 322 323 322 321 322 320 317 316 317 317 318 318 317 317 318 318 322 325 322 322 323 323 323 320 317
331 332 332 333 333 332 330 330 329 329 330 330 331 331 330 332 331 330 329 329 329 328 328 328 328 327 325 324 323 323 322 322 322 322 321 322 322 322 319 319 319 319 319 317 315 316 315 317 315 313 314 315 315 318 322 320 320 321 321 321 318 316
332 332 332 333 332 330 329 329 330 329 330 329 332 332 331 330 328 326 326 326 327 326 326 325 326 326 324 323 322 321 320 320 320 322 318 318 318 317 317 317 317 317 316 316 316 316 314 315 313 314 314 313 311 313 317 316 317 319 318 318 317 314
331 330 330 332 332 330 330 330 331 331 331 331 328 329 327 327 325 324 323 324 324 324 323 323 323 322 322 322 321 320 320 320 319 319 317 316 315 315 315 315 315 316 315 312 311 312 315 314 313 313 310 311 312 312 308 309 311 314 317 317 314 313
330 330 330 332 331 331 331 330 331 331 330 328 327 326 325 324 325 324 322 321 321 322 322 321 321 321 321 319 319 319 319 319 318 318 317 315 314 314 314 314 314 313 312 311 310 310 312 314 313 315 313 311 309 307 306 309 310 310 313 315 314 312
330 330 330 330 331 330 330 329 328 327 325 324 323 323 321 320 320 319 319 320 320 320 320 320 319 319 320 319 316 317 317 317 316 316 316 314 313 314 313 313 313 312 311 311 310 308 308 312 312 312 313 313 312 307 305 307 306 303 310 312 314 311
331 330 330 330 330 330 329 329 329 327 326 324 323 322 322 321 319 319 319 318 318 319 319 318 317 317 317 317 316 316 315 315 315 315 316 313 312 312 313 313 314 312 311 311 310 306 306 307 309 309 310 311 309 308 307 303 300 303 300 306 310 306
330 331 331 331 330 330 329 328 328 327 326 325 322 320 320 319 320 319 317 317 317 317 317 316 316 315 316 317 315 314 314 314 314 315 314 311 311 311 311 312 313 311 312 310 308 306 304 305 305 304 307 306 307 307 304 302 302 302 301 299 299 305
330 331 330 330 328 329 329 329 328 327 325 324 322 321 321 320 318 318 315 315 315 315 314 314 314 314 314 315 317 313 313 312 312 313 314 311 310 310 310 309 309 308 307 307 308 306 304 303 303 301 303 302 303 303 302 301 299 300 300 297 296 295
329 330 329 327 328 328 329 329 327 326 324 322 322 321 319 317 317 316 314 314 314 313 313 313 313 313 313 313 313 313 312 312 312 313 312 309 309 309 309 308 308 307 306 305 305 305 304 303 302 302 301 301 299 300 299 298 297 296 298 298 294 293
329 329 327 327 328 327 328 328 327 326 324 321 320 319 317 316 315 314 313 313 312 312 312 311 312 312 311 312 313 314 311 311 311 313 310 308 308 308 307 307 306 305 304 303 302 302 302 302 301 301 300 300 299 298 296 295 295 295 295 293 293 293
328 327 326 327 327 327 328 328 328 326 323 321 320 318 316 315 315 313 313 312 312 311 310 310 310 310 309 310 310 309 311 309 309 308 307 308 308 307 307 306 304 303 302 302 302 302 300 300 300 299 299 300 299 299 298 297 297 297 295 295 294 293
326 326 325 326 326 326 327 328 328 326 324 322 320 318 316 315 315 313 312 311 310 309 309 309 308 308 308 308 309 308 308 307 307 308 308 307 306 306 305 304 303 302 301 301 300 300 299 299 299 298 298 299 299 299 298 299 298 297 297 297 295 293
325 326 325 325 326 326 327 327 327 326 324 322 319 318 316 315 314 314 313 311 310 309 308 308 308 307 308 308 308 308 307 307 307 308 307 306 305 305 303 302 302 301 300 301 301 300 300 300 299 299 299 298 298 298 298 299 298 297 297 296 294 294
325 326 325 325 326 326 327 327 326 325 323 320 319 317 316 315 314 313 312 311 310 309 309 308 308 308 309 307 308 307 307 306 305 305 305 305 305 304 304 303 302 302 301 300 300 300 299 299 298 298 298 298 298 298 298 299 299 298 298 297 296 295
325 325 324 325 326 326 326 326 324 322 321 320 319 317 315 315 314 313 311 310 309 309 308 308 308 306 306 306 305 305 305 304 304 304 304 303 303 302 302 301 301 300 300 301 299 298 298 298 298 298 297 298 297 297 298 298 299 298 298 299 298 297
324 324 324 325 325 325 324 324 322 320 320 318 317 315 314 313 312 312 311 310 309 308 308 307 306 306 305 305 304 304 303 303 303 303 302 302 302 301 301 300 300 299 299 300 299 298 298 298 297 298 297 297 297 297 297 298 298 298 298 298 298 298
Wind_Speed
7 7 7 7 6 7 10 15 13 14 14 13 12 12 10 10 9 8 7 7 7 5 4 3 4 3 6 3 5 5 4 4 2 1 1 3 4 5 6 7 7 8 8 8 8 7 8 8 8 8 6 4 4 3 2 1 2 1 4 4 5 5
8 9 8 6 5 6 7 9 6 7 6 8 9 9 7 5 7 3 6 5 4 4 3 3 3 5 4 2 2 4 4 4 2 1 2 3 4 5 6 7 7 8 8 8 8 5 5 7 8 9 8 6 1 0 1 2 2 3 3 4 4 5
8 8 8 7 6 5 6 5 5 5 5 7 7 6 4 5 4 4 4 3 3 3 3 3 2 3 4 5 2 3 4 4 3 1 2 4 5 6 7 7 7 7 7 7 5 5 5 5 6 8 7 5 5 4 4 2 3 3 4 4 4 8
8 8 7 6 6 5 5 5 4 4 4 4 5 5 4 5 4 4 4 3 3 2 3 2 1 6 7 4 3 3 4 4 5 4 4 4 5 4 6 6 6 6 5 3 4 4 5 5 5 5 5 4 4 5 5 4 4 3 3 4 5 9
7 7 7 6 6 5 6 5 4 4 4 4 4 4 4 4 4 4 4 4 3 2 2 1 2 2 2 3 2 1 2 2 2 2 2 2 2 3 3 4 5 4 4 4 5 5 4 5 5 5 5 5 5 5 5 4 4 4 4 4 5 8
8 8 7 6 6 7 8 6 6 5 4 4 4 4 3 4 3 3 4 4 3 2 1 2 2 2 2 2 2 1 1 1 1 1 2 2 3 3 3 4 4 5 4 3 3 4 4 3 5 5 5 5 5 5 5 5 4 3 4 4 5 9
9 9 8 6 7 7 6 6 6 5 6 4 4 4 4 3 3 3 3 3 3 2 1 1 1 1 1 1 1 1 1 1 2 2 1 2 3 3 3 4 4 4 4 4 4 3 3 4 3 4 4 5 5 5 5 5 4 4 4 4 5 9
9 9 9 9 9 7 7 7 7 9 7 6 5 4 3 4 3 3 3 2 2 2 2 1 1 0 0 1 1 0 1 1 1 1 1 1 3 4 4 4 4 5 5 5 5 5 4 3 4 3 4 5 5 5 5 5 5 5 5 4 4 6
10 11 9 9 9 6 7 7 7 7 7 7 5 4 3 3 3 2 2 2 2 2 1 1 2 2 1 1 2 1 1 1 1 1 1 1 1 2 3 3 4 4 4 4 4 5 4 4 3 2 3 4 4 5 5 5 5 5 5 5 5 5
11 9 8 8 6 5 7 8 7 6 6 6 5 4 3 3 1 1 1 1 1 2 3 3 2 1 2 2 1 1 2 1 1 1 1 0 1 1 3 3 4 4 4 5 4 4 4 5 5 4 4 4 4 4 4 4 5 4 5 4 4 4
8 9 6 7 4 5 6 7 8 5 5 6 5 5 3 2 2 0 1 1 1 1 1 1 1 2 2 2 1 1 1 1 2 2 1 1 1 1 2 3 3 4 4 4 4 3 3 4 4 4 4 4 4 4 4 4 4 5 5 5 4 4
7 7 6 5 5 5 6 8 7 5 5 4 5 5 4 2 2 2 2 3 3 3 3 2 3 2 2 1 2 2 2 2 2 2 1 1 2 1 2 3 4 3 2 2 3 3 4 4 5 4 4 5 5 5 4 4 4 5 5 5 5 5
5 4 5 5 5 4 4 4 4 4 4 4 4 5 5 4 2 3 3 4 4 4 3 4 3 3 2 1 2 3 3 2 1 2 2 2 3 2 1 1 2 2 4 4 5 5 5 4 4 5 5 5 4 5 5 4 4 4 4 5 4 4
4 3 4 4 3 4 4 4 4 4 4 5 4 5 5 5 4 4 4 3 4 4 3 3 4 3 2 2 3 3 4 4 4 4 4 4 4 4 5 6 5 5 4 5 5 5 5 5 5 5 4 5 4 5 4 4 4 4 4 5 4 5
5 4 4 3 3 3 3 3 4 4 4 5 5 5 5 5 5 5 4 3 3 4 3 4 4 5 4 4 4 4 5 4 4 5 5 5 5 5 5 6 5 4 4 5 4 4 5 4 5 6 5 5 5 5 4 4 4 5 5 5 5 6
5 5 4 3 4 4 4 3 3 4 4 4 4 5 5 6 6 5 4 4 3 3 3 4 5 4 5 4 4 5 4 4 5 5 5 5 5 5 4 5 5 4 4 5 5 5 4 5 5 6 5 4 4 4 4 4 5 5 5 4 7 7
6 5 3 3 3 3 3 3 3 3 4 4 5 5 6 6 6 5 4 4 3 3 3 4 5 5 5 4 4 5 4 5 5 6 5 5 6 4 4 4 5 5 5 4 5 6 5 5 6 6 5 5 4 4 4 4 5 4 4 6 6 6
6 5 4 4 3 4 4 3 3 3 5 5 6 6 7 7 6 5 4 4 3 3 3 4 6 6 6 5 5 5 5 5 5 5 6 6 5 4 5 5 5 5 5 5 5 5 6 6 5 5 5 4 4 3 4 5 4 4 5 6 6 7
6 6 5 5 4 4 4 4 4 5 6 6 6 6 6 7 6 6 5 4 4 4 4 5 6 7 7 6 5 5 5 5 4 5 6 6 5 5 5 5 5 4 4 5 4 4 4 5 6 5 4 4 3 3 3 4 4 5 6 6 7 6
6 6 6 5 5 6 5 5 6 5 6 6 6 6 6 6 6 6 5 5 5 5 5 6 6 7 7 6 6 5 6 5 5 5 6 7 6 6 6 6 6 5 4 4 6 6 5 6 5 4 5 4 3 2 2 4 6 6 5 6 6 6
7 7 7 6 6 7 6 5 4 5 6 6 6 8 7 7 6 5 6 5 6 5 5 6 6 6 7 6 6 6 6 6 5 6 6 6 5 6 5 4 4 5 6 7 7 7 8 5 4 5 4 5 4 2 1 3 7 6 6 5 5 6
7 7 7 7 6 6 5 5 5 5 6 6 7 8 7 6 6 6 6 6 6 6 6 6 5 6 6 6 7 6 6 6 6 6 5 5 6 6 6 6 4 5 5 7 5 7 7 5 4 3 4 6 6 5 0 3 6 8 6 6 6 7
7 7 6 7 6 6 3 4 5 5 5 6 5 6 6 6 6 8 7 6 6 6 6 6 6 5 6 6 7 7 5 5 6 4 6 7 6 7 6 7 6 4 3 4 4 4 8 7 3 4 1 1 3 5 4 5 2 7 6 6 6 8
8 6 6 5 6 6 8 8 7 7 6 6 7 7 8 7 7 8 8 6 6 6 6 7 6 6 6 6 6 6 4 5 5 5 5 6 6 7 7 7 7 6 4 4 4 6 7 7 7 5 4 2 2 1 3 4 7 6 3 5 8 7
8 7 6 7 8 9 10 9 9 9 9 9 7 7 8 7 6 6 6 6 6 6 6 6 6 6 6 7 6 6 6 5 5 5 4 5 6 6 6 6 7 6 6 3 3 3 6 7 10 7 2 2 3 3 1 4 6 4 4 4 7 9
7 6 7 8 9 8 9 10 8 8 8 7 7 5 7 7 5 4 5 5 7 7 6 6 5 6 6 6 7 6 6 6 6 5 5 5 5 6 8 8 6 5 6 6 3 5 5 5 7 9 9 7 4 1 3 4 4 5 5 1 2 6
8 7 8 9 8 8 8 7 8 9 8 7 8 3 4 5 7 5 5 6 6 6 6 6 6 6 6 6 6 6 7 7 7 6 5 6 7 7 6 6 5 7 6 5 5 7 6 4 3 8 7 7 9 7 5 4 4 4 5 5 5 8
7 8 8 9 9 9 10 9 10 9 8 7 7 9 6 5 5 6 7 6 5 5 6 6 6 7 6 6 6 7 7 7 7 6 5 6 6 6 6 6 7 7 6 6 6 6 6 6 5 4 5 6 6 6 8 9 6 2 3 6 6 3
7 8 8 9 9 8 9 8 9 8 7 5 7 8 7 6 6 5 8 6 7 5 6 6 6 6 6 6 6 7 7 7 7 7 5 6 6 7 8 8 8 8 7 6 7 6 7 6 7 6 4 6 5 6 6 7 7 5 3 3 4 5
8 8 9 12 11 7 7 8 8 8 10 8 7 7 7 7 6 5 7 6 6 5 5 6 6 6 6 7 7 7 7 8 7 6 6 7 8 9 8 8 8 8 8 9 6 7 7 5 6 6 7 5 6 5 5 5 7 8 3 4 3 8
9 9 8 9 9 8 8 8 8 8 11 12 10 10 9 7 6 6 6 6 5 5 5 5 5 5 7 7 7 7 7 7 7 7 7 8 8 7 7 8 8 9 9 9 7 7 8 7 6 7 9 8 8 8 6 7 8 9 8 6 7 6
10 12 11 9 10 11 10 9 9 9 10 10 11 9 10 9 7 7 6 6 5 6 6 5 5 6 6 7 7 7 7 8 8 8 8 7 7 7 6 7 8 8 7 8 7 8 7 7 8 7 7 6 7 6 6 7 6 5 7 6 6 6
11 14 13 11 7 8 7 7 8 9 9 8 8 9 9 8 6 7 6 6 7 6 5 6 6 7 6 6 6 7 7 7 7 7 7 8 7 8 8 8 8 9 8 8 7 7 7 7 7 6 6 6 6 6 7 5 5 5 6 4 6 6
11 12 10 8 9 9 8 7 7 9 9 8 8 9 9 9 6 6 6 7 6 6 6 6 6 6 5 6 7 7 7 8 7 7 7 8 8 8 9 8 8 8 8 6 6 8 7 8 7 8 6 6 6 6 5 5 7 7 7 7 8 10
11 10 10 10 10 10 8 8 7 8 8 8 8 8 8 7 7 8 6 7 6 6 7 6 7 5 6 7 7 7 7 8 7 7 8 8 7 8 8 8 7 8 6 6 7 7 7 8 8 8 7 6 6 5 5 5 5 6 5 7 7 8
10 11 11 10 10 10 8 8 9 9 9 9 7 8 8 7 6 7 7 8 7 7 7 7 6 7 6 7 8 8 8 8 8 8 8 8 8 7 8 8 7 7 8 5 7 9 7 8 8 7 7 6 6 6 5 5 6 6 6 6 6 6
9 10 11 10 11 11 11 10 9 9 9 9 10 10 9 9 9 7 8 7 7 7 7 7 6 6 7 7 7 8 8 8 8 8 8 8 8 8 8 7 7 8 8 7 8 8 6 7 6 6 6 7 6 5 5 5 5 5 6 5 5 5
Wind_Direction
141 142 145 147 146 142 152 148 147 146 148 146 142 137 139 142 141 145 141 135 111 96 98 74 93 89 96 105 112 112 113 113 97 79 36 358 349 347 346 353 355 357 357 358 357 352 341 336 337 343 5 55 120 145 204 226 265 206 210 221 225 221
151 154 154 153 149 151 151 146 143 148 147 147 143 139 135 137 140 133 139 113 110 119 103 106 116 117 108 99 74 116 109 101 90 53 10 349 337 343 348 350 352 352 353 350 351 348 336 332 336 339 343 0 50 307 177 200 228 245 223 220 225 229
160 158 154 150 147 151 138 134 140 139 147 148 144 131 130 127 104 126 111 113 115 101 119 111 130 148 140 145 133 103 104 101 87 42 359 347 352 345 342 344 346 342 346 346 350 336 331 332 326 334 345 351 350 337 326 287 226 222 234 225 218 231
164 160 156 152 150 144 138 135 131 135 132 124 114 124 123 129 132 128 126 114 111 116 108 131 79 48 48 77 78 48 61 76 66 47 14 15 341 331 332 338 337 338 347 342 334 331 329 323 324 323 328 339 339 330 323 314 296 258 240 241 230 228
164 160 160 157 151 143 139 137 133 140 129 122 117 119 132 135 139 136 129 123 121 115 113 98 76 69 82 77 78 75 45 39 51 54 23 3 354 323 345 338 340 339 340 335 338 329 335 329 329 329 330 330 332 327 319 311 299 280 261 252 257 242
169 166 169 161 151 151 147 150 150 148 139 127 134 140 141 149 148 142 127 133 133 118 85 57 50 57 73 91 67 48 56 83 58 38 34 344 327 331 332 333 338 327 327 322 296 300 302 301 312 320 322 324 326 323 316 303 293 278 268 262 257 257
170 165 164 158 150 158 156 152 151 149 145 141 143 149 159 160 159 146 138 146 137 123 98 75 17 27 66 102 93 75 53 33 348 5 12 359 322 339 335 336 336 325 318 326 321 301 294 289 276 296 304 307 311 310 309 305 303 296 282 264 264 266
168 166 169 163 167 162 158 158 155 164 157 165 154 174 174 171 157 153 152 151 132 129 149 173 231 281 162 117 107 71 60 11 356 309 2 2 331 330 336 334 329 326 335 332 328 324 324 304 300 284 303 304 305 308 310 309 309 307 310 294 282 278
174 176 173 165 172 164 159 158 159 163 151 175 168 174 166 154 162 146 154 156 151 134 139 195 197 193 84 86 82 52 33 11 14 73 140 211 194 290 318 322 324 322 323 317 321 318 322 318 314 282 268 293 299 300 305 307 306 308 308 305 298 291
184 180 170 169 170 158 158 159 166 162 157 167 167 136 142 152 120 128 191 162 216 168 194 202 182 129 107 62 46 43 49 15 356 12 55 237 154 200 280 326 321 321 324 318 318 314 329 321 322 324 320 311 304 303 304 304 305 295 283 287 288 294
185 180 168 168 147 142 151 162 172 160 159 171 138 129 128 114 101 36 275 162 150 114 93 57 95 105 79 120 115 70 46 349 0 41 64 284 5 312 319 272 291 304 306 306 298 302 307 308 311 312 322 314 309 308 300 299 300 302 307 309 318 306
180 175 164 158 146 150 163 169 175 161 167 148 126 122 113 98 99 134 156 118 105 95 115 134 131 129 133 118 120 116 66 40 343 5 60 34 352 340 302 308 311 297 282 288 299 342 344 344 328 319 322 324 324 324 322 319 312 309 307 315 324 326
169 169 152 147 159 169 164 162 155 163 145 134 126 117 114 113 112 118 107 103 108 119 140 145 134 122 117 106 108 85 75 55 337 41 67 47 28 15 27 295 15 11 40 18 14 359 345 344 339 330 326 319 330 325 325 321 312 315 322 320 328 329
157 150 152 142 147 148 166 162 161 148 142 136 134 127 126 130 129 100 94 109 127 139 138 130 124 113 127 124 90 86 94 74 52 75 80 66 61 42 48 41 13 32 24 25 11 348 350 348 334 318 323 323 329 323 323 323 329 329 329 338 344 351
150 122 156 157 141 159 167 159 152 157 153 147 143 134 132 125 111 111 106 101 106 104 97 96 93 110 107 103 89 75 58 56 72 75 70 59 75 60 59 48 23 30 25 24 5 353 355 334 326 323 321 332 329 326 333 334 334 347 359 357 8 20
131 134 150 165 156 164 163 155 156 154 137 140 135 128 127 117 116 109 106 95 76 83 84 85 83 81 86 70 84 76 61 68 74 83 79 71 70 59 56 64 39 40 38 20 4 350 349 337 330 318 323 331 322 336 342 347 1 8 11 29 43 40
136 145 148 155 152 142 133 143 147 130 135 127 124 121 115 114 106 104 104 92 75 79 83 88 86 82 87 69 71 75 64 77 89 93 86 81 73 67 64 76 55 41 53 36 11 346 342 347 329 314 315 336 341 343 7 5 13 23 22 53 46 45
133 131 129 133 139 132 132 126 112 110 113 104 107 111 112 108 102 103 97 78 67 83 80 82 87 88 86 81 72 82 72 66 80 86 86 78 74 75 71 70 70 46 45 41 22 1 343 332 317 308 318 341 351 2 13 20 27 35 43 48 46 43
131 126 120 122 122 110 105 88 87 99 95 96 93 93 101 96 103 100 89 91 82 69 80 80 87 90 90 85 76 64 63 47 58 76 75 68 57 55 67 62 69 43 44 58 37 6 341 318 311 306 314 338 347 0 8 31 38 46 43 44 47 41
125 123 122 124 129 125 121 127 119 105 89 91 87 87 79 91 92 94 99 94 89 85 81 86 86 87 91 87 82 68 65 44 45 62 64 58 40 35 40 48 44 41 30 31 32 7 356 343 313 301 324 345 341 326 59 33 52 52 45 44 41 38
132 133 141 148 149 143 138 134 129 114 112 108 100 98 91 93 95 94 86 79 81 77 83 83 79 84 83 86 79 75 67 50 42 56 61 57 52 48 39 50 60 45 42 39 20 3 353 332 346 337 346 341 331 340 138 74 57 56 48 44 42 44
132 143 149 153 147 145 140 148 129 115 108 103 108 107 103 97 92 81 80 81 77 76 76 77 79 84 85 85 83 73 65 54 53 60 63 56 53 49 39 35 30 60 42 60 44 1 350 348 29 18 330 335 332 333 134 62 58 46 51 43 39 42
141 144 149 147 144 137 110 104 118 122 113 88 58 79 90 96 91 86 74 71 69 70 72 68 62 76 86 80 84 85 74 66 54 54 62 45 39 40 35 38 36 65 40 44 51 12 14 24 0 321 212 344 12 355 331 4 6 49 40 49 41 40
146 144 145 141 117 98 95 92 84 97 83 90 111 90 83 77 80 84 74 72 63 66 70 71 59 60 67 67 72 81 86 76 68 56 71 69 49 43 29 29 31 38 65 55 17 25 25 24 32 2 21 28 313 42 328 357 346 328 34 62 43 44
146 146 138 118 113 110 103 92 93 86 88 89 77 87 86 67 68 85 86 61 62 65 65 68 63 62 69 73 71 76 79 75 75 65 71 74 64 51 48 40 32 40 39 116 72 22 23 27 37 32 54 17 0 28 29 295 319 287 351 33 36 44
130 131 123 117 120 116 118 119 121 114 108 104 107 108 116 122 100 68 79 86 68 62 64 63 58 58 65 69 72 73 78 80 73 67 66 75 68 57 42 39 28 37 42 30 95 55 25 19 38 41 42 54 70 92 330 314 28 330 339 47 75 66
138 127 121 119 115 113 109 116 125 123 126 140 128 72 86 97 112 100 91 78 70 59 55 66 56 59 64 68 77 75 78 78 75 73 66 69 62 55 49 47 37 44 40 39 48 68 42 345 1 35 30 51 63 56 40 36 20 291 335 324 8 9
132 125 123 121 117 132 136 144 135 135 142 139 130 127 120 106 96 104 90 80 74 61 54 54 64 61 65 73 77 75 75 77 76 68 67 62 63 54 59 49 49 49 53 50 54 69 60 25 47 2 15 32 45 63 59 59 40 1 289 311 317 30
123 115 116 118 125 152 145 136 134 133 124 121 127 125 122 113 105 98 91 86 78 76 70 62 60 66 63 69 72 77 75 75 73 68 67 68 62 60 61 65 59 57 56 54 54 59 64 47 48 33 6 21 25 41 46 51 30 8 32 306 291 354
108 108 115 127 143 148 130 126 126 136 132 132 128 120 118 116 106 99 89 89 87 81 76 70 63 64 72 68 72 72 73 72 73 73 68 73 75 70 68 67 64 68 66 67 51 56 63 60 60 53 54 45 46 21 43 27 29 21 26 56 339 317
107 105 110 131 136 133 131 134 138 143 145 141 140 132 121 113 116 106 96 93 88 85 78 78 78 65 67 70 71 67 71 70 67 71 71 72 73 77 74 74 72 69 63 64 62 63 64 57 60 56 53 51 53 49 49 42 23 23 31 12 339 328
111 112 124 152 151 148 146 141 143 147 145 143 140 135 129 130 130 117 115 108 107 97 85 81 77 76 64 64 71 67 67 71 69 71 72 76 76 79 78 77 71 69 65 62 61 66 63 60 57 60 53 48 53 51 49 46 31 22 26 22 11 332
119 126 150 168 140 118 122 144 146 141 138 137 130 129 126 121 126 120 123 117 115 108 105 87 77 83 66 64 70 70 68 72 74 74 83 83 82 81 81 77 74 70 67 65 65 69 69 64 60 58 61 50 51 46 50 37 35 30 27 16 17 344
130 128 143 143 129 132 151 155 151 142 141 133 131 133 127 126 127 118 119 115 114 114 105 102 97 83 72 70 64 68 75 78 83 89 88 88 85 82 81 79 75 75 72 71 70 68 68 67 61 57 54 59 48 44 43 31 40 39 31 24 20 14
130 126 137 150 138 144 157 148 146 136 129 128 131 128 120 122 128 124 117 111 106 105 105 101 92 83 74 75 75 78 81 84 84 84 85 84 80 79 81 82 79 81 78 72 71 71 65 64 61 57 53 54 61 47 37 28 29 34 28 34 29 12
131 132 141 150 137 146 156 152 141 133 132 128 127 116 108 110 109 112 114 112 109 104 101 97 85 83 69 81 84 86 83 85 86 85 84 86 86 84 83 85 83 82 80 70 75 69 65 64 64 62 63 58 62 50 35 27 25 24 23 19 17 26
128 128 144 152 141 149 154 148 138 133 134 134 129 125 126 122 116 108 105 106 107 103 96 90 91 86 86 83 87 90 90 86 83 86 86 84 86 86 85 85 86 83 80 75 74 69 65 71 70 68 65 58 58 53 36 26 27 26 19 17 22 14